Location: New Town
(33.2710°N, 90.7534°W)
Time: 11:28:27
(UTC+00:00)

Vanguard 2 Rocket - Visible Passes

Search period start: 13 May 2021 00:00
Search period end: 23 May 2021 00:00
Orbit: 554 x 3326 km, 32.9° (Epoch: 12 May)

Date Brightness Start Highest point End Pass type
(mag) Time Alt. Az. Time Alt. Az. Time Alt. Az.
14 May 8.5 10:24:06 10° SSE 10:25:36 12° SE 10:27:14 10° ESE visible
17 May 8.3 09:38:51 10° SSE 09:39:59 11° SE 09:41:08 10° SE visible
19 May 7.6 09:51:24 14° SSW 09:53:39 21° SSE 09:56:55 10° E visible
20 May 8.2 08:55:04 12° SE 08:55:04 12° SE 08:56:05 10° SE visible
21 May 6.7 10:04:31 14° SW 10:07:27 37° SSE 10:11:24 10° E visible
22 May 7.3 09:08:10 23° SSE 09:08:16 23° SSE 09:11:28 10° E visible
